EHI
3 7 16 23 19 9 3 1 0 0 0 0 0 0 1 2 2 1 5 13 18 15 9 6 5 2 1 0 0 0 0 0 0 0 0 0 0 1 1 0 1 2 3 3 4 5 5 4 3
6 11 20 23 15 5 1 0 0 0 0 0 0 0 1 2 2 3 6 11 14 13 11 10 9 7 4 2 1 1 0 0 0 1 1 1 1 2 2 1 0 1 1 2 3 4 4 3 3
12 20 27 22 10 2 0 0 0 0 0 0 0 0 0 1 2 3 6 8 9 12 15 16 15 12 9 5 2 2 1 1 2 3 3 3 3 3 2 1 0 0 1 2 3 3 3 3 3
23 30 29 18 6 1 0 0 0 0 0 0 0 0 1 1 2 4 5 4 7 12 17 19 18 14 9 5 3 3 3 4 5 5 5 4 3 3 1 1 1 1 1 3 3 3 3 3 3
34 32 23 10 2 0 0 0 0 0 0 0 1 1 1 0 1 3 3 2 6 13 17 18 19 14 7 5 3 4 5 6 6 6 5 4 4 3 1 1 2 2 2 3 3 3 3 3 3
37 29 15 5 0 0 0 0 0 0 0 1 1 2 1 0 0 2 2 2 6 13 16 17 17 12 7 5 4 4 6 6 6 6 6 6 5 4 2 1 1 2 2 2 3 3 3 4 4
30 20 8 2 0 0 0 0 0 0 0 0 1 2 1 0 0 1 1 2 5 11 14 14 11 8 7 6 5 5 6 6 6 6 6 7 7 6 5 3 2 2 2 2 3 4 5 7 9
16 10 4 1 0 0 0 0 0 0 0 0 1 2 2 1 0 1 2 2 4 7 11 11 7 5 6 7 7 7 7 6 6 6 7 7 8 7 6 6 6 5 4 5 7 9 10 12 12
8 5 2 1 0 0 0 0 0 0 0 0 2 3 3 1 0 1 2 2 2 4 6 6 6 5 6 9 10 9 8 8 8 7 8 9 9 7 7 10 14 12 9 10 13 16 16 15 14
5 4 2 1 0 0 0 0 0 0 0 2 5 6 4 1 0 1 2 1 1 3 4 4 4 5 5 8 10 9 9 11 11 10 9 10 9 6 7 13 18 17 14 15 18 20 17 14 12
2 1 0 0 0 0 0 0 0 0 1 5 9 9 5 2 1 1 1 0 1 4 5 4 5 6 7 8 9 8 8 11 13 13 11 9 7 6 7 11 15 16 15 15 19 19 14 10 9
0 0 0 0 0 0 0 0 0 0 3 8 12 11 8 5 3 3 1 1 3 6 8 8 10 13 15 13 10 7 6 7 12 17 15 9 7 7 8 10 12 14 14 14 15 14 11 9 9
0 0 0 0 0 0 0 0 0 1 5 10 13 13 10 7 6 4 2 3 7 11 12 13 17 20 20 17 13 8 6 6 12 19 19 14 11 10 11 11 14 14 14 13 12 10 9 9 10
0 0 0 0 0 0 0 0 0 1 6 11 13 11 9 7 7 5 4 6 12 16 16 17 21 23 21 17 13 10 8 8 12 19 22 19 15 13 13 14 15 15 15 14 12 10 9 9 8
0 0 0 0 0 0 0 0 0 1 6 10 11 9 8 8 8 7 8 11 17 20 20 20 22 25 24 19 13 10 9 11 15 20 24 23 19 16 15 15 14 15 16 15 12 11 10 7 5
0 0 0 0 0 0 0 0 1 2 6 10 10 9 10 10 10 10 12 16 22 25 24 21 19 24 27 23 18 14 14 17 21 23 24 25 23 19 17 15 14 14 15 14 12 11 10 8 6
0 0 0 0 0 0 0 1 2 3 7 11 13 14 15 14 13 14 16 21 28 30 28 23 20 24 28 26 23 22 22 24 27 27 26 26 24 20 17 15 14 14 14 13 12 12 13 13 11
0 0 0 0 0 0 0 2 4 6 10 15 19 22 22 20 18 19 20 25 33 36 32 28 25 26 28 26 26 25 25 28 31 30 28 26 23 20 17 15 16 17 15 13 13 14 16 17 16
0 0 0 0 0 0 1 3 5 8 13 20 25 28 28 27 26 25 24 27 36 40 37 33 31 31 30 28 27 26 26 28 31 30 29 27 23 20 17 16 18 19 17 16 16 17 16 15 16
0 0 0 0 0 1 2 3 3 5 11 19 26 29 31 33 34 31 27 29 38 45 43 39 38 35 34 33 30 27 28 27 27 28 30 28 25 20 18 18 18 18 17 17 19 19 16 14 15
0 0 0 0 0 1 3 3 2 2 6 13 20 24 30 36 39 37 34 33 41 49 49 46 45 41 39 37 31 28 29 27 25 27 30 29 24 21 19 19 19 17 16 16 18 19 17 16 16
0 0 0 0 0 1 2 3 3 2 2 6 13 19 28 37 42 43 41 39 42 48 51 51 49 45 42 39 35 32 32 31 30 30 30 28 24 21 20 20 20 18 15 13 14 15 17 18 18
0 0 0 0 0 0 1 2 4 3 3 5 10 17 27 36 44 48 48 45 43 46 52 54 52 47 44 41 40 40 39 38 37 35 32 29 24 21 20 21 20 18 16 12 12 14 16 17 16
0 0 0 0 0 0 0 1 3 4 5 7 9 14 24 34 42 48 51 50 47 48 51 52 52 50 46 42 44 45 45 44 42 39 36 30 25 22 21 22 22 20 16 12 12 15 16 15 14
0 0 0 0 0 0 0 1 3 5 5 6 8 13 20 30 40 46 51 53 53 51 49 49 52 54 51 48 47 48 47 46 45 42 36 29 24 23 23 24 25 25 21 16 14 15 16 16 15
0 0 0 0 0 0 0 1 3 4 4 4 8 13 20 29 38 44 48 52 54 52 48 47 53 56 56 53 52 51 48 44 42 39 35 28 23 22 25 27 29 30 28 22 18 16 16 17 18
0 0 0 0 0 0 0 1 2 3 4 5 9 15 21 29 37 41 42 45 50 50 47 49 54 56 56 54 52 50 48 43 39 36 33 29 25 24 27 30 30 30 30 25 20 21 21 20 19
0 0 0 0 0 0 0 1 3 4 6 9 14 18 23 29 35 39 38 39 45 47 47 50 54 54 53 50 48 46 44 42 39 35 31 30 29 27 28 30 29 28 27 23 21 22 23 21 19
0 0 0 0 0 0 0 1 4 6 8 12 17 22 26 29 35 40 41 41 44 47 49 51 53 52 50 47 45 42 41 41 39 34 30 29 28 26 26 29 29 26 24 23 22 21 20 19 18
0 0 0 0 0 0 0 1 5 8 9 12 18 25 27 30 36 43 46 46 46 49 51 52 52 52 49 46 43 40 40 41 38 33 29 27 25 24 27 30 29 25 22 23 22 19 17 17 18
Wind_Speed
10 10 8 5 4 0 8 12 13 12 13 13 12 13 16 14 11 9 8 11 12 12 11 11 10 10 9 9 8 8 8 9 9 8 8 8 8 8 9 9 9 9 9 9 9 9 8 8 7
9 10 7 4 2 5 10 11 12 13 12 12 13 15 15 15 13 11 9 10 12 12 11 10 11 10 9 8 8 8 8 8 8 8 7 7 7 8 9 9 9 9 9 9 9 8 8 7 7
10 10 5 2 4 7 10 10 11 12 10 11 13 14 13 11 11 10 10 11 13 13 12 12 11 10 9 9 8 7 7 8 8 7 7 7 7 8 8 8 8 8 8 8 7 7 7 6 6
7 6 5 0 7 9 9 10 11 12 11 11 12 12 12 10 11 12 11 12 13 14 14 13 12 11 10 9 8 7 7 7 7 7 7 7 7 8 8 8 8 7 7 7 6 6 6 5 5
7 5 1 4 9 10 10 10 10 11 11 13 15 15 12 12 14 13 11 11 13 13 14 13 12 12 10 9 8 8 8 7 7 6 6 6 7 7 7 7 8 7 7 6 6 5 5 5 5
5 3 1 6 10 11 10 9 10 11 12 13 14 14 11 11 12 11 11 11 12 13 13 12 12 12 10 9 8 8 8 7 6 6 6 6 7 7 7 8 8 7 6 6 5 5 5 5 5
7 2 3 6 9 10 10 10 10 11 11 10 12 13 11 11 10 11 11 10 11 12 12 11 11 10 10 10 9 8 7 7 6 6 6 6 6 7 8 8 7 7 6 6 5 5 5 6 7
5 3 4 6 10 10 10 10 10 11 11 9 9 10 11 11 10 11 11 10 10 10 10 10 9 9 9 9 9 8 7 7 6 5 5 6 6 7 7 7 7 7 7 6 6 6 7 7 7
5 1 4 6 8 8 9 9 9 11 11 11 11 14 14 13 12 11 10 10 9 8 8 7 8 7 7 8 9 8 7 6 6 5 5 5 4 5 6 7 8 7 7 7 7 8 8 8 9
0 3 4 5 7 7 8 8 8 10 10 10 14 15 15 12 11 10 10 10 9 8 7 6 6 6 6 6 7 5 5 5 4 3 3 3 2 2 4 7 9 8 8 8 8 9 9 8 5
1 3 3 5 7 6 7 7 8 9 9 10 13 14 14 11 9 9 9 9 9 8 7 6 6 5 4 4 4 2 2 3 3 3 3 1 1 1 2 3 4 5 7 5 6 7 5 5 3
1 3 4 4 5 6 7 8 9 8 9 12 13 14 13 11 9 8 8 9 9 8 7 6 6 5 4 3 3 3 2 2 2 3 2 2 1 1 1 0 1 2 2 2 2 2 3 3 2
0 1 2 3 5 6 6 7 8 8 11 12 13 13 12 10 9 9 8 8 9 7 7 7 6 5 3 2 0 2 2 3 3 3 2 2 1 1 1 1 0 1 0 1 1 2 2 2 3
3 2 0 2 5 4 5 6 6 6 10 12 12 11 11 10 10 9 8 8 9 7 6 6 6 5 3 2 1 0 2 3 3 3 3 1 1 1 1 1 1 1 1 0 0 2 2 1 2
5 4 4 3 5 5 3 4 5 7 10 11 11 10 10 10 9 9 9 8 9 8 6 6 7 6 4 2 1 1 1 3 3 3 4 3 2 2 0 0 0 1 0 1 1 1 1 1 1
7 5 5 3 3 5 4 3 5 8 9 10 10 10 9 9 10 9 9 8 8 8 7 5 5 7 5 3 2 1 1 2 2 2 3 3 2 1 0 0 0 1 1 0 0 0 1 1 1
7 7 6 4 3 4 4 6 8 10 9 9 9 10 9 9 9 9 10 10 9 8 7 5 3 5 5 4 2 1 1 2 2 2 2 2 2 1 0 0 0 1 0 1 1 1 1 1 1
6 7 6 4 3 4 2 6 9 10 10 9 10 9 9 9 9 10 9 10 10 9 8 6 5 4 3 3 2 1 1 1 2 2 2 2 1 1 1 1 1 0 1 1 1 1 1 1 1
8 8 5 3 5 4 4 5 8 8 9 9 10 10 9 9 9 9 9 10 10 9 8 7 6 5 3 2 2 2 2 1 2 2 3 3 1 0 0 1 1 0 1 0 1 1 2 2 1
11 10 7 5 3 3 4 4 7 8 8 9 10 11 10 10 10 9 9 9 10 10 9 7 6 5 4 3 3 2 2 2 2 1 2 2 2 0 0 1 1 1 0 0 0 1 1 2 0
10 9 8 6 5 5 4 5 5 7 8 9 10 11 11 10 11 11 10 10 9 10 10 8 7 6 4 3 2 2 2 1 1 1 2 1 1 1 0 1 0 1 1 0 1 1 1 2 1
10 9 9 8 7 6 6 4 4 6 7 8 8 10 11 12 12 12 11 10 9 9 9 8 7 6 4 4 2 3 3 2 2 1 2 1 1 1 1 1 0 1 1 1 2 0 1 1 2
8 7 9 11 9 8 8 6 4 7 8 8 8 8 9 11 12 13 12 10 9 9 9 8 7 6 5 4 3 3 2 1 2 1 2 1 2 2 1 1 0 1 1 1 1 1 1 1 2
8 8 10 10 9 10 9 7 4 5 5 6 8 9 10 10 11 12 11 10 9 8 8 8 7 6 5 4 4 3 3 2 2 1 1 1 1 1 1 0 1 1 1 1 2 2 2 1 2
7 8 6 7 8 9 6 5 3 5 6 7 7 8 9 10 10 11 11 11 9 9 9 8 8 7 6 5 4 3 2 3 2 2 2 2 1 1 0 1 1 1 2 3 2 2 2 2 3
9 10 9 8 8 7 4 4 2 4 4 5 5 6 8 8 9 10 10 10 9 9 9 9 9 7 6 5 4 3 2 2 2 2 1 1 0 0 0 0 0 1 1 3 2 2 2 2 3
12 11 11 11 12 9 4 2 2 3 4 3 4 5 7 7 8 8 9 10 10 9 9 9 9 7 6 6 4 4 3 2 1 1 1 1 1 1 1 0 0 1 1 2 2 2 2 1 3
12 11 8 9 7 9 7 4 3 4 4 2 3 5 8 7 6 7 8 9 9 9 9 8 8 7 6 5 5 4 4 3 2 1 1 1 0 1 1 1 1 1 1 2 2 2 1 2 3
11 11 10 8 9 8 7 3 3 4 5 5 4 5 7 7 8 6 5 7 8 9 8 8 7 7 6 5 4 3 3 3 2 2 1 1 0 0 1 2 2 2 2 2 2 3 2 3 3
11 10 11 9 8 9 8 3 2 3 3 3 5 6 7 6 7 7 6 6 6 7 7 6 6 6 6 4 4 3 3 3 2 2 2 1 1 1 1 2 2 3 2 2 2 3 3 3 3
Wind_Direction
189 205 213 237 240 207 55 62 62 60 61 59 58 64 66 54 64 85 99 103 110 114 119 119 114 113 111 107 105 105 107 113 115 115 116 120 125 126 122 122 119 121 127 130 127 126 125 123 120
209 216 222 243 296 60 63 61 64 65 69 72 66 65 70 66 75 94 101 108 114 119 123 117 119 116 114 110 105 106 110 118 119 120 118 122 128 130 129 128 128 128 131 132 131 130 130 131 131
240 243 254 230 56 57 67 68 69 73 72 78 77 63 62 74 84 99 111 115 109 111 113 116 121 118 116 113 109 108 111 119 126 127 125 126 136 134 130 133 134 136 135 133 135 136 137 141 146
238 224 231 116 75 75 73 76 77 76 70 74 80 76 67 71 94 105 116 115 109 110 112 118 121 121 119 117 115 112 110 116 124 130 129 127 135 140 139 140 139 141 140 137 141 144 151 157 166
234 254 209 71 76 78 78 75 77 84 83 82 85 86 80 80 98 112 118 110 108 109 111 120 121 123 121 120 118 117 115 116 122 130 137 138 142 144 144 144 147 147 146 149 154 161 169 177 186
257 249 57 76 75 76 77 80 83 82 89 95 96 94 91 103 109 117 111 108 109 111 114 122 125 125 125 124 124 122 121 124 127 130 140 148 152 153 155 154 156 158 158 163 169 180 190 196 202
254 303 46 70 82 76 77 72 75 82 81 85 99 98 109 114 118 118 112 107 107 112 119 129 133 133 132 128 124 132 131 135 138 137 143 152 156 161 160 161 165 169 173 178 180 191 203 208 215
261 331 23 65 76 76 81 79 76 83 82 87 96 105 119 124 129 122 115 107 105 109 117 125 130 135 143 140 137 138 141 146 148 152 160 163 168 173 172 171 178 181 185 189 193 204 213 220 226
267 14 26 52 77 90 88 90 91 92 90 83 80 102 120 130 133 127 119 115 111 110 112 118 125 136 140 140 143 152 155 161 165 169 178 183 188 180 178 177 173 184 189 191 202 212 216 225 229
220 74 48 58 75 92 93 92 99 102 95 95 96 106 119 131 137 133 126 126 122 119 119 119 126 122 127 129 131 152 160 154 175 161 177 200 195 157 148 159 178 188 194 199 211 222 223 227 225
130 96 74 68 83 95 97 92 92 101 117 122 119 123 129 135 140 135 130 129 128 129 121 120 115 110 113 115 133 145 146 145 162 141 145 152 129 125 138 162 175 193 201 209 203 216 228 226 216
68 71 66 64 84 91 94 90 87 87 99 114 123 132 137 141 144 132 130 129 126 126 122 117 106 96 80 86 114 137 140 142 130 125 128 126 98 64 81 211 179 197 187 193 200 205 229 238 236
357 74 101 105 90 86 98 95 94 101 109 118 127 137 141 144 142 131 130 126 123 126 125 116 103 97 88 71 74 129 132 121 115 119 113 95 110 89 70 12 8 291 215 197 210 225 238 235 233
317 311 222 126 118 118 107 107 112 122 126 130 135 142 145 148 146 138 136 131 129 129 125 120 118 118 120 135 227 132 127 117 119 121 117 119 100 85 60 343 338 327 346 316 262 254 242 246 255
282 296 277 206 144 136 110 109 137 145 142 138 139 144 149 149 143 138 138 138 134 133 131 132 139 135 141 160 209 161 151 131 127 123 122 119 96 85 61 254 275 16 330 263 240 272 271 249 260
275 264 256 226 167 141 133 140 154 154 151 145 148 149 149 148 149 147 145 139 135 136 136 142 150 144 151 167 202 161 121 114 118 110 114 114 101 92 283 39 42 315 252 212 196 343 336 311 295
258 246 241 224 170 149 174 163 172 168 153 153 154 152 155 154 156 151 150 144 142 138 140 147 139 137 155 166 187 188 146 109 116 111 105 110 114 115 288 79 321 280 336 27 3 61 327 294 309
264 261 238 227 191 173 184 159 168 167 161 164 157 155 158 160 160 152 152 149 146 143 145 148 144 140 153 155 167 170 139 126 115 109 113 116 127 122 326 207 200 336 60 25 29 342 288 276 261
267 268 279 233 209 202 194 177 170 170 170 167 162 162 165 165 159 155 158 156 150 146 147 150 151 149 153 152 158 159 162 158 135 137 132 134 131 158 235 324 337 349 105 107 319 339 303 272 239
267 268 261 257 242 229 221 199 173 175 183 171 171 168 169 165 160 161 165 161 155 153 153 153 153 155 165 170 174 169 168 162 142 134 126 130 124 69 343 16 358 328 216 201 286 303 297 300 245
267 269 267 265 271 254 242 241 191 188 182 172 180 172 168 172 167 166 168 167 162 159 161 162 160 158 168 168 173 158 144 172 127 135 136 134 140 159 208 119 117 276 265 260 244 269 307 301 298
266 271 273 268 260 258 245 246 210 199 188 178 184 174 169 172 167 167 170 172 168 161 158 154 152 153 157 160 166 177 171 171 162 161 145 157 182 211 204 156 202 282 276 298 278 33 300 299 301
277 292 287 286 276 264 250 242 215 199 192 180 184 175 170 167 167 167 171 169 165 158 157 151 151 153 157 167 166 177 185 160 143 153 164 186 203 228 203 158 259 277 261 288 299 303 297 289 286
280 283 279 277 273 256 252 251 222 194 178 169 179 175 168 161 162 161 163 156 158 154 152 149 150 155 160 173 179 181 185 174 173 185 178 216 219 219 256 157 289 283 291 289 267 270 270 265 280
246 264 268 262 251 250 249 251 208 159 160 165 192 174 161 159 157 156 158 155 159 159 157 155 154 159 163 171 183 186 189 189 185 200 202 244 241 170 34 1 300 295 296 276 269 268 278 268 270
241 237 249 266 270 270 233 226 180 134 130 145 166 165 158 154 153 151 153 151 157 161 160 159 157 162 164 170 178 181 194 202 189 200 221 247 293 67 109 39 339 300 307 308 321 289 272 287 292
251 249 256 264 269 278 262 214 133 112 109 131 155 151 137 144 149 149 155 157 158 165 166 161 156 162 170 172 172 175 188 209 217 201 219 220 283 255 86 36 348 312 314 305 293 277 289 307 294
247 263 267 264 272 276 266 231 181 153 146 175 173 148 130 131 130 148 156 157 158 162 158 153 151 160 166 168 182 180 187 194 211 202 217 219 195 328 349 306 282 270 261 268 279 276 262 256 254
237 245 260 275 281 284 282 287 156 170 160 169 173 121 121 129 130 135 142 140 152 152 151 153 155 162 168 173 178 185 180 190 199 199 200 236 261 286 308 290 287 273 260 257 263 277 270 263 270
250 251 252 254 258 270 276 273 119 126 136 131 107 96 96 99 116 123 119 117 127 135 141 146 157 165 168 171 175 188 186 189 198 209 207 214 257 267 263 271 279 272 270 276 276 277 281 273 270